Location: Kimberly
(42.5380°N, 114.3640°W)
Time: 23:02:44
(UTC-06:00)

ISS - Visible Passes

Search period start: 19 July 2018 00:00
Search period end: 29 July 2018 00:00
Orbit: 402 x 408 km, 51.6° (Epoch: 20 July)

Date Brightness Start Highest point End Pass type
(mag) Time Alt. Az. Time Alt. Az. Time Alt. Az.
19 Jul -1.1 01:13:06 10° WNW 01:15:40 21° NNW 01:18:15 10° NE visible
19 Jul -0.8 02:50:44 10° NW 02:53:02 17° N 02:55:20 10° NE visible
19 Jul -2.3 04:27:03 10° NW 04:30:10 39° NNE 04:33:18 10° E visible
19 Jul -3.9 22:43:30 10° SW 22:46:42 57° SE 22:49:56 10° ENE visible
20 Jul -1.6 00:20:32 10° W 00:23:23 26° NNW 00:26:15 10° NE visible
20 Jul -0.7 01:58:27 10° NW 02:00:40 16° N 02:02:53 10° NE visible
20 Jul -1.6 03:35:04 10° NW 03:37:57 27° NNE 03:40:50 10° E visible
20 Jul -3.8 05:11:23 10° WNW 05:14:36 54° SW 05:17:49 10° SE visible
20 Jul -3.0 21:51:48 10° SSW 21:54:42 30° SE 21:57:38 10° ENE visible
20 Jul -2.3 23:28:03 10° W 23:31:08 38° NNW 23:34:14 10° NE visible
21 Jul -0.8 01:06:01 10° NW 01:08:18 17° N 01:10:34 10° NE visible
21 Jul -1.2 02:43:02 10° NW 02:45:39 21° NNE 02:48:15 10° ENE visible
21 Jul -3.8 04:19:14 10° NW 04:22:32 81° NNE 04:25:49 10° ESE visible
21 Jul -3.3 22:35:43 10° WSW 22:38:57 62° NNW 22:42:12 10° NE visible
22 Jul -1.0 00:13:27 10° WNW 00:15:56 19° NNW 00:18:24 10° NE visible
22 Jul -0.9 01:50:56 10° NW 01:53:17 18° N 01:55:39 10° NE visible
22 Jul -2.8 03:27:11 10° NW 03:30:22 47° NNE 03:33:33 10° ESE visible
22 Jul -2.7 05:04:02 10° W 05:06:41 23° SW 05:09:21 10° S visible
22 Jul -3.9 21:43:34 10° SW 21:46:49 73° SE 21:50:06 10° ENE visible
22 Jul -1.3 23:20:50 10° WNW 23:23:35 24° NNW 23:26:20 10° NE visible
23 Jul -0.8 00:58:41 10° NW 01:00:54 17° N 01:03:07 10° NE visible
23 Jul -1.0 02:35:09 10° NW 02:35:59 16° NW 02:35:59 16° NW visible
23 Jul -1.9 22:28:17 10° W 22:31:17 32° NNW 22:34:18 10° NE visible
24 Jul -0.8 00:06:16 10° NW 00:08:29 17° N 00:10:43 10° NE visible
24 Jul -1.1 01:43:07 10° NW 01:44:42 19° NNW 01:44:42 19° NNW visible
24 Jul -2.8 21:35:51 10° WSW 21:39:02 50° NNW 21:42:14 10° NE visible
24 Jul -0.9 23:13:42 10° NW 23:16:05 18° N 23:18:28 10° NE visible
25 Jul -1.2 00:51:00 10° NW 00:53:27 19° N 00:53:48 19° NNE visible
25 Jul -1.2 22:21:03 10° WNW 22:23:41 22° NNW 22:26:19 10° NE visible
25 Jul -0.9 23:58:47 10° NW 00:01:01 17° N 00:03:04 11° NE visible
26 Jul -0.8 01:35:08 10° NW 01:35:40 14° NW 01:35:40 14° NW visible
26 Jul -0.9 23:06:22 10° NW 23:08:34 16° N 23:10:46 10° NE visible
27 Jul -1.3 00:43:03 10° NW 00:45:01 22° N 00:45:01 22° N visible
27 Jul -1.0 22:13:49 10° NW 22:16:07 17° N 22:18:25 10° NE visible
27 Jul -1.5 23:50:56 10° NW 23:53:28 20° NNE 23:54:23 18° NE visible
28 Jul -1.1 22:58:44 10° NW 23:01:01 17° N 23:03:19 10° NE visible
